CST,Max TemperatureF,Mean TemperatureF,Min TemperatureF,Max Dew PointF,MeanDew PointF,Min DewpointF,Max Humidity, Mean Humidity, Min Humidity, Max Sea Level PressureIn, Mean Sea Level PressureIn, Min Sea Level PressureIn, Max VisibilityMiles, Mean VisibilityMiles, Min VisibilityMiles, Max Wind SpeedMPH, Mean Wind SpeedMPH, Max Gust SpeedMPH,PrecipitationIn, CloudCover, Events, WindDirDegrees
2013-1-1,25,16,6,17,10,5,84,67,50,30.37,30.30,30.20,10,10,4,13,5,16,0.01,4,Snow,328
2013-1-2,31,19,6,22,15,3,84,71,58,30.30,30.23,30.17,10,9,6,15,4,18,0.00,3,,260
2013-1-3,36,28,19,25,22,17,96,78,59,30.47,30.41,30.31,10,9,6,12,5,16,T,5,,280
2013-1-4,43,29,14,27,19,13,88,71,53,30.43,30.35,30.24,10,8,0,15,5,22,0.00,0,Fog,191
2013-1-5,47,38,29,31,27,22,76,65,53,30.23,30.18,30.07,10,10,5,21,8,28,T,4,Snow,233
2013-1-6,45,33,20,22,19,16,77,55,33,30.43,30.34,30.24,10,10,10,16,7,22,0.00,0,,244
2013-1-7,52,42,32,27,23,20,63,49,35,30.26,30.13,30.03,10,10,10,20,11,28,0.00,0,,189
2013-1-8,57,46,35,32,30,26,75,57,38,30.22,30.04,29.95,10,10,10,18,9,27,0.00,0,,209
2013-1-9,57,41,24,33,28,21,92,68,43,30.45,30.37,30.24,10,9,6,13,2,15,0.00,0,,167
2013-1-10,46,41,35,45,40,29,100,80,60,30.32,29.93,29.73,10,4,0,17,7,21,0.28,8,Fog-Rain,101
2013-1-11,60,53,46,47,44,18,100,61,22,29.76,29.65,29.53,10,8,0,25,14,37,0.00,5,Fog,189
2013-1-12,48,34,20,32,16,9,76,59,42,30.16,30.06,29.85,10,9,2,23,13,31,0.01,5,Snow,330
2013-1-13,28,21,13,8,6,3,73,54,34,30.41,30.30,30.17,10,10,10,16,9,21,0.00,0,,309
2013-1-14,34,22,10,13,9,6,83,58,32,30.56,30.47,30.39,10,10,10,10,3,13,0.00,0,,319
2013-1-15,36,25,14,15,12,9,88,60,32,30.43,30.33,30.20,10,10,10,6,1,10,0.00,1,,75
2013-1-16,50,36,22,30,21,10,85,65,45,30.24,30.12,30.03,10,10,10,13,6,16,0.00,1,,243
2013-1-17,50,36,21,32,28,21,96,71,46,30.52,30.43,30.27,10,10,2,12,3,16,0.00,0,,275
2013-1-18,62,49,35,30,29,27,75,52,29,30.39,30.18,30.01,10,10,10,28,14,38,0.00,0,,201
2013-1-19,66,53,39,30,28,24,64,43,22,30.28,30.08,29.97,10,10,10,20,9,26,0.00,0,,264
2013-1-20,41,30,19,27,12,7,75,55,35,30.47,30.37,30.30,10,10,10,18,8,23,0.00,0,,19
2013-1-21,24,19,14,12,7,4,74,59,44,30.50,30.45,30.42,10,10,10,14,6,18,0.00,6,,7
2013-1-22,34,25,15,11,7,3,61,48,35,30.44,30.36,30.29,10,10,10,13,7,17,0.00,0,,77
2013-1-23,50,32,14,22,15,9,80,57,34,30.47,30.30,30.20,10,10,10,18,5,23,0.00,0,,6
2013-1-24,28,20,12,12,4,0,68,51,33,30.53,30.38,30.21,10,10,10,16,10,22,0.00,4,,71
2013-1-25,49,33,17,20,16,10,73,52,31,30.28,30.23,30.17,10,10,8,10,3,14,0.00,1,,264
2013-1-26,60,43,26,27,23,20,81,52,23,30.29,30.19,30.06,10,10,10,18,7,22,T,1,,123
2013-1-27,63,52,41,54,45,34,93,68,42,30.05,29.85,29.73,10,8,2,22,11,31,0.08,7,Rain,173
2013-1-28,77,63,48,60,49,42,86,65,43,29.84,29.76,29.60,10,9,6,26,11,38,0.00,6,,131
2013-1-29,70,53,35,60,40,32,92,82,72,29.70,29.60,29.55,10,7,2,22,11,30,0.07,7,Rain-Snow,325
2013-1-30,35,28,21,32,22,13,96,77,57,30.01,29.78,29.57,10,5,1,32,14,39,0.10,8,Snow,313
2013-1-31,23,15,7,16,8,1,80,66,52,30.53,30.27,30.00,10,10,10,30,9,36,T,4,,313